Regional Weather Roundup
Issued by NWS Memphis, TN

Home | Current Version | Previous Version | Text Only | Print | Product List | Glossary On
Versions: 1 2 3 4 5 6 7 8 9 10 11 12 13 14 15 16 17 18 19 20 21 22 23 24 25 26 27 28 29 30 31 32 33 34 35 36 37 38 39 40 41 42 43 44 45 46 47 48 49 50
000
ASUS44 KMEG 230910
RWRMEG
MEMPHIS CWA HOURLY WEATHER ROUNDUP
NATIONAL WEATHER SERVICE MEMPHIS TN
300 AM CST THU JAN 23 2020

...WEST TENNESSEE...

CITY           SKY/WX    TMP DP  RH WIND       PRES   REMARKS
MEMPHIS INTL   LGT RAIN  38  28  67 SE7       30.13F WCI  33
NWS MEMPHIS      N/A     37 N/A N/A MISG        N/A
JACKSON        CLOUDY    35  31  85 CALM      30.16F
COVINGTON      CLOUDY    37  28  70 SE7       30.13F WCI  32
SOMERVILLE     CLOUDY    36  28  75 CALM      30.12F
BOLIVAR        CLOUDY    36  28  75 CALM      30.14F
LEXINGTON      CLOUDY    36  27  69 CALM      30.16F
SELMER         CLOUDY    39  19  45 SE5       30.16S
DYERSBURG      FAIR      37  24  59 SE7       30.15F WCI  32
UNION CITY     CLOUDY    36  21  55 SE8       30.14F WCI  29
PARIS          CLOUDY    37  19  48 SE6       30.15S WCI  33
HUNTINGDON     CLOUDY    36  25  64 SE3       30.15F


...EASTERN ARKANSAS...

CITY           SKY/WX    TMP DP  RH WIND       PRES   REMARKS
JONESBORO      LGT RAIN  36  32  85 S8        30.10F WCI  30
WEST MEMPHIS   LGT RAIN  38  32  79 SE12      30.11F WCI  30
BATESVILLE     LGT RAIN N/A N/A N/A SE6       30.06F
NEWPORT        LGT RAIN  35  33  92 SE13      30.08F WCI  26
WALNUT RIDGE   LGT RAIN  34  33  96 S8        30.09F WCI  27
BLYTHEVILLE    LGT RAIN  37  29  72 SE6       30.12F WCI  32
SEARCY         LGT RAIN  36  36 100 SE7       30.06F FOG     WCI  30
STUTTGART      LGT RAIN  37  35  92 SE15      30.06F WCI  28
PINE BLUFF     LGT RAIN  37  34  89 SE13      30.04F FOG     WCI  29
MONTICELLO     LGT RAIN  38  36  92 E8        30.05F FOG     WCI  32


...NORTH MISSISSIPPI...

CITY           SKY/WX    TMP DP  RH WIND       PRES   REMARKS
TUPELO         CLOUDY    40  26  57 CALM      30.17F
OXFORD         LGT RAIN  37  23  56 CALM      30.16F
BATESVILLE     LGT RAIN  36  34  93 CALM      30.14F
OLIVE BRANCH   CLOUDY    36  30  80 CALM      30.13F
TUNICA         LGT RAIN  36  32  87 SE9       30.13F WCI  29
CLARKSDALE     MOCLDY    37  36  93 E8        30.11F WCI  31
CORINTH        CLOUDY    37  27  65 SE3       30.17S
GREENWOOD      LGT RAIN  40  32  73 E9        30.12F WCI  34
COLUMBUS       FAIR      39  29  68 NW3       30.18R
STARKVILLE     CLOUDY    37  30  75 CALM      30.18S
GOLDEN TRIANGL CLOUDY    39  29  67 NW3       30.18S


...SOUTHEAST MISSOURI...

CITY           SKY/WX    TMP DP  RH WIND       PRES   REMARKS
KENNETT        CLOUDY    36  34  93 S7        30.10F WCI  30
MALDEN         MIX PCPN  36  32  87 MISG      30.12F
WEST PLAINS    CLOUDY    32  30  92 S8        30.02F FOG     WCI  25
POPLAR BLUFF   MIX PCPN  32  29  88 SE5       30.10F WCI  27
CAPE GIRARDEAU MIX PCPN  34  27  75 SE7       30.12F WCI  28


...NORTHWEST ALABAMA...

CITY           SKY/WX    TMP DP  RH WIND       PRES   REMARKS
MUSCLE SHOALS  CLOUDY    40  27  59 CALM      30.18S


...MIDDLE TENNESSEE...

CITY           SKY/WX    TMP DP  RH WIND       PRES   REMARKS
NASHVILLE      CLOUDY    40  19  43 E3        30.19S
CLARKSVILLE    CLOUDY    34  26  72 SE3       30.18S
DICKSON        CLOUDY    39  18  41 S6        30.15S WCI  35
COLUMBIA       CLOUDY    36  28  75 CALM      30.16S
LAWRENCEBURG   CLOUDY    39  19  45 CALM      30.16S
LEWISBURG      CLOUDY    34  28  80 CALM      30.18S


...WESTERN KENTUCKY...

CITY           SKY/WX    TMP DP  RH WIND       PRES   REMARKS
PADUCAH        CLOUDY    36  21  54 SE7       30.13F WCI  30
FORT CAMPBELL  FAIR      35  22  59 SE5       30.17S WCI  31


...CENTRAL ARKANSAS...

CITY           SKY/WX    TMP DP  RH WIND       PRES   REMARKS
LITTLE ROCK    LGT RAIN  36  34  92 SE13      30.04F FOG     WCI  27


SKY/WX REPORTED AS FAIR MEANS FEW OR NO CLOUDS BELOW
12 THOUSAND FEET.




USA.gov is the U.S. government's official web portal to all federal, state and local government web resources and services.